{"data":{"norad_id":56335,"intl_designator":"2023-058U","name":"STARLINK-5559","alt_names":[],"object_type":"PAYLOAD","status":"ACTIVE","operator":null,"country":"US","launch_date":"2023-04-27","launch_site_code":"AFWTR","launch_vehicle":null,"mission":null,"orbit_class":"UNKNOWN","rcs_meters":null,"size_class":null,"mass_kg":null,"dimensions":null,"purposes":["comms"],"wikipedia_slug":null,"has_3d_model":false,"image_url":null,"decayed_at":null,"tle_current":{"epoch":"2026-09-20T22:38:07.708992Z","epoch_age_seconds":70526,"freshness":"FRESH","line1":"1 56335U 23058U   26263.94314478  .00000416  00000+0  15215-4 0  9997","line2":"2 56335  97.2837 260.7035 0001542  88.5769 271.5651 15.33442162187709","mean_motion":15.33442162,"eccentricity":0.0001542,"inclination_deg":97.2837,"raan_deg":260.7035,"arg_perigee_deg":88.5769,"mean_anomaly_deg":271.5651,"bstar":1.5215e-5,"rev_number":18770,"period_min":93.906378452636,"perigee_km":464.4963215975,"apogee_km":466.60691516741,"semimajor_km":6843.6886183825,"source":"CELESTRAK","updated_at":"2026-09-21T09:00:33.404027Z"}}}